GFSSE_sfc_temp_171.txt.gz
Temp
75 80 82 84 84 84 84 84 84 84 84 84 84 84 84 84 84 84 84 84 84 84 84 84 84 84 85 85 84 84 83 83 83 84 83 83 83 83 83 83 83 89 82
75 81 82 83 84 84 84 84 83 83 84 84 84 84 84 84 84 84 84 84 82 85 84 84 84 84 84 84 84 84 83 84 84 84 84 84 83 83 83 83 80 86 82
75 78 86 82 83 84 83 83 84 84 84 84 84 84 84 84 84 84 84 84 84 84 84 85 85 84 84 84 84 84 83 83 83 84 85 93 90 83 83 83 82 82 82
75 77 84 82 82 84 83 83 84 84 84 84 83 84 84 84 84 84 84 84 84 85 85 84 84 84 84 84 84 84 83 83 83 84 91 95 93 83 83 83 82 82 82
76 82 85 83 84 84 83 83 83 84 83 84 84 84 84 84 84 84 84 84 84 84 84 84 84 84 84 84 84 83 84 84 84 86 95 94 91 85 83 83 83 82 82
78 88 85 84 84 83 83 83 84 83 83 84 84 84 84 84 84 84 84 84 84 84 84 84 85 85 84 84 84 84 84 85 85 94 95 93 91 84 83 83 83 83 82
78 87 84 83 84 84 83 83 83 83 84 84 84 84 84 84 84 84 84 84 84 84 84 84 84 84 84 84 84 84 84 85 94 94 95 96 90 83 84 84 83 83 82
85 79 88 83 83 83 83 83 83 84 84 84 84 84 84 84 84 84 84 84 84 84 84 84 84 84 85 85 85 85 85 85 91 96 93 90 82 83 83 83 83 83 82
81 77 81 84 85 83 83 83 84 84 84 84 84 84 84 84 84 84 84 84 84 84 84 84 84 84 85 85 85 85 85 85 86 85 98 84 81 83 83 82 82 82 82
81 79 78 79 84 88 88 84 84 84 84 84 84 84 84 84 84 84 83 83 84 84 84 84 84 84 85 85 85 85 85 85 89 96 84 90 81 83 83 83 83 82 82
74 75 78 81 85 87 87 85 84 84 84 85 85 85 86 95 92 90 85 84 84 84 85 85 84 84 84 84 85 85 85 92 96 98 94 81 82 83 83 83 83 82 82
73 76 81 82 86 90 93 88 90 91 91 94 92 92 94 94 93 94 89 84 85 85 85 85 85 85 85 97 91 86 96 101 102 102 95 82 82 82 82 82 82 82 82
80 85 85 84 88 91 92 81 83 87 93 92 87 89 90 91 91 86 86 87 87 86 85 89 90 92 97 96 97 99 99 101 103 103 89 83 82 82 82 82 82 82 82
87 89 89 91 91 89 91 84 89 93 93 87 91 87 90 79 93 93 87 89 90 87 92 90 86 93 94 94 96 97 99 100 100 101 90 84 83 82 83 83 82 82 82
84 89 89 90 85 87 84 86 88 94 93 94 94 91 93 90 83 85 91 92 93 94 86 89 87 90 89 89 97 95 97 98 99 100 100 84 84 82 83 83 83 83 82
89 85 93 89 86 89 88 86 89 92 93 95 95 92 91 91 86 85 86 93 87 91 94 93 90 89 92 95 96 95 94 96 97 96 99 92 84 83 82 83 83 83 83
86 92 92 91 89 88 87 85 90 94 97 95 96 92 91 91 90 89 93 92 93 92 89 91 91 93 92 96 94 95 96 96 97 95 96 96 88 82 83 83 82 82 82
91 91 92 94 92 89 87 88 92 95 94 96 97 96 93 93 93 90 93 93 83 91 88 93 93 93 92 93 92 95 96 96 95 95 98 97 98 100 85 83 83 82 82
92 91 89 90 91 90 88 90 91 91 92 96 97 97 95 93 92 91 94 94 90 90 90 91 92 92 91 91 93 96 95 96 94 99 95 95 96 97 97 87 84 83 83
93 91 89 90 89 89 90 89 91 93 94 96 96 97 94 94 91 91 94 92 88 92 91 92 87 91 90 92 95 96 95 97 97 96 97 99 99 96 97 93 92 93 83
92 89 88 87 87 87 88 88 90 91 93 95 96 94 93 93 93 91 94 94 93 90 90 88 88 87 90 94 89 93 95 96 96 97 99 98 96 96 94 93 91 91 91
91 89 87 86 86 86 89 88 91 92 95 95 96 93 93 92 92 91 90 91 92 91 88 86 86 89 92 93 87 88 83 87 85 91 96 95 94 95 94 93 91 90 91
91 89 88 86 87 86 86 89 89 89 89 90 92 93 94 93 92 91 91 90 88 88 92 87 87 86 88 92 91 86 81 81 84 87 91 94 93 93 93 93 93 92 90
93 93 90 88 86 87 87 87 86 88 88 93 94 96 95 94 92 92 91 90 89 90 89 90 90 87 87 86 90 90 86 86 75 75 87 89 91 85 87 91 90 92 92
95 94 92 88 87 87 87 86 88 85 91 93 94 92 92 90 91 93 92 90 87 89 89 87 86 85 87 87 88 89 87 80 76 69 68 79 86 78 83 89 82 90 92
98 96 94 88 86 86 87 86 84 86 87 90 92 92 94 95 96 94 92 90 88 87 85 82 85 84 80 80 82 84 86 78 78 78 75 79 80 84 85 87 90 91 92

GFSSE_sfc_temp_174.txt.gz
Temp
78 80 83 83 84 84 84 84 83 83 83 83 83 83 83 83 83 83 84 84 84 84 84 84 84 84 84 84 83 83 83 83 83 83 83 83 83 83 79 80 81 85 82
77 81 82 83 84 84 84 83 83 83 83 83 83 83 84 84 84 84 83 84 84 84 84 84 84 84 84 84 83 83 84 83 84 84 84 84 84 83 80 82 81 83 83
75 78 82 83 84 84 83 83 83 84 84 84 83 84 84 83 84 84 84 84 84 84 84 84 84 84 84 84 84 83 83 83 83 83 84 86 84 84 83 83 83 83 82
76 76 79 81 83 83 83 83 83 84 84 83 84 83 84 84 84 84 84 84 84 84 84 84 84 84 84 83 83 83 83 83 83 84 82 82 87 83 83 83 83 82 82
76 79 80 82 83 84 83 83 83 83 83 83 84 84 84 84 84 84 84 84 84 84 84 84 84 84 84 83 83 83 84 84 84 85 86 83 83 83 83 83 82 82 82
75 84 83 82 84 83 83 83 83 83 83 84 84 84 84 84 84 84 84 84 84 84 84 84 84 84 84 84 84 84 84 84 84 86 86 85 82 83 83 83 83 82 81
77 83 83 83 83 83 83 83 83 83 84 83 83 83 83 84 84 84 84 84 84 84 84 84 84 84 84 84 84 84 84 84 85 89 86 84 81 82 83 83 83 82 82
80 77 84 83 83 83 83 83 83 84 84 83 84 84 84 84 84 84 84 84 84 84 84 84 84 84 85 85 85 84 84 84 78 81 80 83 80 82 83 83 82 82 82
79 78 82 82 83 84 83 84 84 84 84 84 84 84 84 84 84 84 84 84 84 84 84 84 84 85 85 85 84 84 84 84 80 79 82 78 81 82 83 83 82 82 82
81 81 79 78 79 83 84 83 84 84 84 84 84 84 84 84 84 84 83 83 84 84 84 85 85 84 84 84 84 84 84 85 85 84 77 81 81 83 83 83 82 82 82
74 75 77 78 82 85 84 84 83 84 84 84 84 85 84 84 84 84 84 84 84 85 84 84 84 84 84 84 84 84 84 87 91 88 80 81 81 83 83 83 82 82 82
72 75 78 82 85 86 89 82 84 86 84 80 84 76 79 83 86 89 88 84 85 85 84 84 83 83 84 85 88 84 85 88 92 91 85 81 81 83 83 82 82 82 82
80 80 84 84 82 86 85 85 79 79 86 86 86 82 84 84 83 85 74 81 83 85 84 84 74 71 78 89 89 90 89 92 83 87 85 81 82 83 83 82 82 81 82
82 85 83 86 83 74 86 75 74 77 76 74 87 86 85 82 83 81 76 81 83 86 86 78 74 74 86 89 77 85 91 91 74 76 84 82 82 82 83 82 82 82 81
82 84 83 85 84 84 83 72 71 72 86 88 83 87 86 85 81 82 81 83 85 84 86 84 85 86 84 86 82 88 90 90 91 89 78 82 82 82 83 83 82 82 82
86 87 89 85 84 86 83 83 79 87 89 88 86 88 90 84 83 83 82 84 82 82 86 85 84 83 84 84 85 90 89 89 90 90 85 82 83 82 83 83 83 83 83
86 89 86 85 86 85 86 85 83 87 92 89 89 88 89 88 86 83 81 84 82 84 86 85 83 85 84 87 86 87 88 89 90 89 88 85 84 83 83 83 82 82 82
89 86 87 91 87 86 84 84 84 88 88 89 91 90 89 90 89 85 83 74 79 84 83 83 84 84 84 83 83 84 86 87 88 87 88 88 87 90 83 83 83 82 82
86 82 87 87 87 86 85 86 87 89 87 88 90 90 89 90 90 86 86 83 84 85 84 83 84 83 82 83 84 83 85 85 86 92 87 87 87 86 86 83 83 82 83
85 86 86 87 86 84 84 84 85 86 88 89 89 90 89 88 88 87 86 82 86 84 79 76 81 83 81 81 88 87 84 86 84 85 86 88 87 88 88 85 82 84 85
89 87 85 84 83 85 84 83 83 84 86 88 89 91 90 89 89 88 86 86 87 82 83 85 83 81 81 83 79 80 82 79 79 81 76 72 77 89 87 84 82 82 83
87 86 84 84 84 83 84 83 84 85 87 87 87 88 91 89 88 88 85 84 83 83 84 83 82 80 81 82 79 77 74 79 79 77 78 77 83 85 87 86 83 83 81
88 86 84 83 83 83 83 84 84 85 84 84 84 86 87 86 87 89 86 85 83 84 83 82 82 80 78 80 81 78 72 71 77 81 81 82 82 82 83 84 84 83 81
90 90 86 84 82 84 83 82 82 82 81 84 85 86 89 91 91 89 88 86 85 84 81 82 84 81 80 78 80 83 80 76 67 65 77 78 80 80 81 79 81 82 80
92 91 88 84 83 83 83 82 82 82 84 86 86 85 86 88 88 89 88 86 84 84 84 83 81 80 77 76 75 74 76 73 72 68 66 67 76 80 79 79 79 83 81
94 93 89 84 83 83 84 83 81 81 82 83 84 84 85 86 86 85 80 78 80 82 82 81 80 80 79 77 75 74 72 70 71 69 67 67 67 75 75 71 74 81 81

GFSSE_sfc_temp_180.txt.gz
Temp
73 75 82 83 84 83 83 83 83 83 83 83 83 83 83 83 83 83 83 84 84 84 84 84 84 84 84 84 84 84 83 83 83 83 83 83 83 83 83 84 83 82 82
74 77 82 82 83 84 83 83 83 83 83 83 83 83 83 83 83 83 83 84 84 84 84 84 84 84 83 83 84 84 83 83 83 84 83 83 82 83 83 83 83 82 82
74 77 80 82 83 83 83 83 83 83 83 83 83 83 83 83 84 84 84 84 84 84 84 84 84 84 83 83 83 82 82 82 83 84 83 79 79 83 82 83 83 82 82
75 76 78 82 83 83 83 83 83 83 83 83 83 83 83 83 84 84 84 84 84 84 84 84 84 83 83 82 83 82 82 83 83 83 79 79 82 83 83 83 82 82 82
75 77 79 82 83 83 82 82 82 83 83 83 83 83 84 84 84 84 84 84 84 84 84 83 83 83 83 83 82 82 82 83 83 83 77 76 76 82 83 82 82 82 81
75 78 81 83 83 83 82 83 83 83 83 83 83 84 84 83 83 84 84 84 84 84 84 84 83 83 83 83 83 83 83 83 84 79 79 77 75 82 83 82 82 82 81
73 76 78 82 83 83 82 82 83 83 83 83 83 84 84 83 84 84 84 83 83 83 83 84 84 84 84 84 84 83 82 83 79 78 78 77 75 82 82 83 82 82 81
75 75 78 82 82 82 82 83 83 83 83 83 83 83 83 83 83 83 83 83 83 83 83 83 83 84 84 84 84 83 83 84 79 79 77 76 77 81 82 82 82 82 81
75 75 75 77 80 83 83 83 83 83 83 83 83 83 83 83 83 83 83 83 83 83 83 83 83 84 84 84 83 83 83 84 75 75 79 75 79 81 83 82 82 82 81
74 74 74 74 75 75 77 83 83 83 83 83 83 83 83 83 84 83 82 82 83 83 83 83 84 82 81 81 83 83 84 84 77 75 76 76 80 82 83 82 82 81 81
72 73 73 74 74 74 76 79 81 83 83 84 83 83 82 77 78 81 82 82 83 84 84 84 81 82 81 80 81 82 83 76 78 76 75 78 79 82 83 82 82 81 81
70 72 74 73 74 74 81 75 74 77 76 75 75 76 75 75 76 81 81 83 84 83 84 81 82 83 80 74 75 78 77 79 76 79 76 79 79 81 82 82 81 81 81
74 75 75 74 74 74 74 73 73 73 73 73 74 73 73 76 75 75 74 72 72 78 77 78 76 74 77 75 77 74 75 75 74 76 76 78 81 82 83 82 81 81 81
72 73 76 75 73 72 72 71 72 73 72 72 73 74 75 73 73 72 71 72 73 74 74 73 71 73 74 74 74 74 75 72 71 73 75 81 81 81 83 82 82 81 81
71 74 75 74 72 72 71 70 71 73 72 72 72 75 75 74 74 74 74 73 73 74 73 72 71 71 71 72 74 77 74 72 72 73 71 81 82 81 81 82 82 82 81
72 73 76 74 73 73 70 71 70 72 74 74 73 76 78 76 75 74 72 69 68 74 73 72 72 72 73 73 77 78 79 74 73 73 73 72 80 80 81 82 82 82 82
73 74 75 75 75 74 74 74 74 74 78 76 76 76 78 78 76 75 71 70 70 71 74 73 74 76 77 77 76 77 78 79 75 75 76 75 77 80 80 81 81 81 82
74 74 75 81 76 74 74 73 74 75 75 75 76 77 78 79 77 75 72 71 69 68 72 73 73 74 73 73 73 75 75 76 79 77 77 77 79 80 80 81 81 81 81
75 74 74 76 75 74 74 74 74 75 75 76 76 76 77 79 78 75 73 73 72 70 73 73 74 73 72 72 74 76 75 74 76 79 78 79 78 78 80 80 80 81 82
77 75 77 75 74 74 73 72 73 73 74 76 76 75 79 77 80 75 75 75 75 73 72 72 71 73 72 71 77 77 73 73 72 72 73 77 74 73 74 79 76 80 81
77 75 76 74 73 72 70 70 70 71 73 73 75 78 77 77 80 78 76 76 75 75 73 73 73 71 70 72 70 71 72 71 70 71 71 70 72 76 76 76 72 77 76
76 76 75 74 74 75 73 71 72 72 73 73 75 76 78 78 79 79 76 77 76 76 75 74 73 71 70 71 70 67 66 72 70 71 70 73 71 73 75 73 73 74 72
77 75 76 75 75 77 73 72 72 72 72 71 73 74 75 77 78 77 77 75 75 74 74 73 73 71 70 70 70 68 64 62 64 68 70 68 68 66 69 72 73 73 72
79 79 78 76 76 75 74 72 72 70 69 71 72 73 76 78 77 78 77 75 73 72 72 73 75 72 70 68 69 70 67 66 62 61 66 67 68 69 71 72 71 72 73
81 79 78 76 77 76 76 75 73 70 70 72 72 73 73 75 77 79 75 71 69 70 69 72 72 71 69 68 67 67 67 66 63 63 62 64 67 67 68 69 72 70 73
82 81 78 76 76 75 74 73 72 71 71 70 71 72 73 74 75 74 74 71 70 69 69 71 72 71 70 69 68 67 66 66 64 63 61 61 62 67 67 68 68 70 70

GFSSE_sfc_temp_183.txt.gz
Temp
73 74 82 83 83 84 84 83 83 83 83 83 83 83 83 83 83 83 83 83 84 84 84 84 84 83 83 83 83 83 83 83 83 82 82 82 82 82 82 82 82 81 82
73 75 81 83 83 83 83 83 83 83 83 83 83 83 83 83 83 83 83 84 84 84 84 84 83 83 83 83 83 83 83 83 83 83 83 83 83 82 83 83 82 81 82
73 76 79 82 83 83 83 83 83 83 82 83 83 83 83 83 83 83 84 84 83 83 84 83 83 83 83 83 83 83 82 82 83 83 83 77 78 82 82 83 82 82 82
74 75 77 82 82 83 82 83 83 83 83 83 83 83 83 83 83 84 84 84 84 84 83 83 83 83 83 82 82 82 82 82 83 83 77 77 80 82 82 83 82 82 81
74 75 78 82 83 83 82 82 82 83 83 83 83 83 83 83 83 83 83 84 84 83 83 83 83 83 82 82 82 82 82 82 83 83 77 75 73 81 82 82 82 81 81
74 77 81 83 83 82 82 82 82 82 83 82 83 83 83 83 84 84 84 83 83 83 83 83 83 83 83 83 82 82 83 83 84 77 78 76 75 80 82 82 82 82 81
74 75 78 82 82 82 82 82 82 82 83 83 83 83 83 83 84 83 83 83 83 83 83 83 83 84 84 83 82 83 83 84 78 75 76 76 75 80 82 82 82 82 81
74 74 77 82 82 82 82 82 82 82 83 83 83 83 83 83 83 83 82 82 83 83 82 83 83 83 84 84 82 82 83 84 79 76 75 74 77 80 82 82 82 81 81
73 74 75 76 80 82 83 83 82 83 83 83 83 82 83 83 83 82 82 82 83 83 83 83 83 84 84 82 82 82 83 84 75 75 79 74 78 80 82 82 82 82 81
73 74 73 74 75 75 76 83 82 82 82 82 82 83 83 83 83 83 82 81 82 83 83 83 84 84 82 82 82 82 79 81 76 76 74 76 79 81 82 83 82 81 81
72 72 73 73 73 73 75 79 81 82 83 83 82 83 81 76 76 79 81 82 83 84 84 84 84 82 82 80 80 81 81 75 76 75 74 75 78 80 82 82 81 81 81
69 71 72 72 72 73 79 74 74 76 75 74 75 74 73 73 74 80 81 82 83 82 83 84 83 82 82 74 73 78 73 75 74 78 75 79 78 80 81 82 81 81 81
70 73 73 72 72 72 73 72 72 72 73 72 73 73 73 74 74 74 73 72 71 77 76 77 76 74 73 72 72 72 73 74 73 76 78 80 80 81 82 81 82 81 81
73 72 73 73 72 72 72 71 71 72 72 71 73 73 72 72 73 73 72 73 73 73 73 73 72 72 71 73 72 72 73 73 72 73 74 79 80 82 82 82 82 81 81
70 72 73 73 71 71 71 70 70 71 71 71 72 73 73 72 72 73 73 72 71 72 72 72 72 72 71 72 73 74 74 73 73 72 71 78 81 81 82 83 82 82 82
71 72 74 73 72 71 70 69 70 71 71 73 72 73 75 74 73 73 72 70 68 70 72 72 72 71 72 72 75 76 75 73 73 72 75 73 79 80 81 82 82 82 82
70 72 73 73 73 71 72 71 71 73 75 73 74 75 76 76 74 74 72 71 69 69 70 72 72 73 73 74 73 75 75 76 73 74 75 74 74 78 80 80 81 81 81
71 72 73 79 74 72 72 72 73 73 73 73 74 74 76 76 75 74 72 71 71 68 70 72 71 72 72 71 71 73 74 74 75 75 75 75 75 77 79 80 80 80 82
72 72 71 74 73 73 72 72 73 73 72 73 73 74 75 76 77 73 72 73 73 71 71 72 71 71 71 71 73 74 74 72 73 77 75 75 75 74 75 78 80 80 81
73 72 72 73 72 72 71 70 71 71 73 73 73 73 76 76 77 73 74 74 74 73 72 71 70 71 71 70 75 75 72 72 72 71 72 75 73 73 72 75 73 74 79
75 72 72 71 71 70 68 68 68 69 71 72 74 76 75 74 76 75 74 74 74 73 73 72 71 70 70 70 69 70 71 72 71 71 71 70 71 75 73 73 71 71 73
74 73 72 72 71 71 70 69 70 70 71 71 72 74 75 76 76 75 74 74 73 72 72 72 71 69 69 70 68 65 64 68 69 70 70 70 70 71 72 72 71 72 71
74 73 73 72 72 72 71 70 69 70 70 70 71 72 74 75 75 74 75 74 73 72 71 72 71 70 68 69 68 67 62 60 63 66 67 67 68 67 68 69 71 71 71
75 76 75 73 72 73 71 71 69 69 68 69 70 71 73 75 75 76 75 74 71 71 70 70 73 71 69 67 68 69 66 66 63 62 64 66 66 67 66 69 68 69 69
78 77 75 73 73 73 73 74 73 69 69 70 69 71 72 73 75 76 75 72 70 69 68 70 70 69 68 68 66 66 65 64 63 61 58 61 65 64 65 65 66 66 68
79 78 76 73 73 73 73 72 72 71 70 69 69 69 70 71 73 74 74 70 70 68 69 70 70 70 68 67 67 66 64 63 62 61 59 59 59 64 66 64 64 64 66

GFSSE_sfc_temp_186.txt.gz
Temp
73 74 81 82 84 84 84 83 83 83 83 83 83 83 83 83 83 83 83 83 83 83 83 83 83 83 83 83 83 83 83 82 83 82 82 82 81 82 82 82 82 83 82
74 76 81 82 83 83 83 83 83 83 83 83 83 83 83 83 83 83 83 84 84 84 84 84 83 83 83 83 83 83 83 82 82 83 83 83 82 82 82 83 82 82 82
74 75 79 82 83 83 83 83 83 83 83 83 83 83 83 83 83 83 84 83 83 84 84 84 83 83 83 83 83 83 82 82 82 82 82 80 81 82 82 83 82 82 82
74 75 77 81 82 83 83 83 83 83 83 83 83 83 83 83 83 84 84 83 83 83 83 83 83 83 82 82 82 82 82 82 82 83 80 80 81 82 82 83 82 81 81
74 76 78 82 83 83 82 82 83 83 83 83 83 83 83 83 83 84 84 83 83 83 83 83 83 83 82 82 82 82 82 83 83 83 80 79 78 81 82 82 82 81 81
74 77 81 83 83 82 82 82 82 82 82 83 83 83 83 83 84 84 83 83 83 83 83 83 84 84 84 83 83 83 83 84 82 79 78 79 79 79 82 82 83 81 81
74 76 78 82 82 82 82 82 82 82 82 83 83 83 83 83 83 83 83 83 83 83 83 83 83 84 83 83 83 83 83 84 81 77 78 78 78 79 82 82 82 82 81
74 74 77 82 82 82 82 82 82 83 83 83 83 83 83 83 83 82 82 82 82 82 82 83 83 83 84 84 84 83 83 84 80 79 78 77 77 79 81 82 82 82 81
74 74 75 76 80 83 82 82 82 83 83 83 82 82 83 83 82 82 82 82 82 83 83 83 83 83 83 83 83 83 82 83 80 78 80 77 78 80 81 82 82 82 82
73 73 74 74 75 75 76 82 82 82 82 82 82 82 82 83 83 83 82 81 82 83 83 84 84 84 82 82 82 81 81 83 79 78 77 78 79 80 82 82 82 82 81
72 72 73 73 73 74 75 79 81 82 83 83 82 82 80 77 78 79 81 82 84 84 84 84 84 83 83 81 81 81 82 78 78 77 75 77 79 80 81 82 82 82 81
70 70 72 72 72 73 78 74 74 76 76 76 75 75 75 75 75 80 81 81 82 82 82 82 83 81 77 75 75 78 75 76 77 79 76 79 80 81 81 82 81 81 81
71 73 72 72 72 72 73 72 72 73 73 73 75 74 73 75 75 75 74 75 73 77 77 77 77 77 76 75 75 74 75 76 77 78 79 79 80 81 82 82 81 81 81
70 73 72 73 72 72 72 72 72 73 73 73 74 74 73 73 73 74 74 74 74 75 75 72 74 75 75 75 75 75 76 75 74 75 76 79 80 81 81 82 82 81 81
70 72 72 73 72 72 72 71 72 72 72 73 73 74 74 74 73 74 75 74 72 70 74 74 74 75 75 74 74 75 76 76 77 77 75 79 80 80 81 82 81 82 82
72 71 73 73 72 72 71 71 71 72 73 74 74 75 75 74 74 74 74 73 73 72 74 74 74 75 75 76 78 78 79 78 77 76 78 78 79 79 80 81 81 82 82
70 72 72 73 73 71 71 71 72 73 76 74 74 75 76 76 76 75 74 73 72 72 72 73 75 76 76 77 76 77 78 79 78 77 77 77 78 78 79 81 81 81 81
71 71 72 78 74 72 72 72 73 74 74 74 74 75 76 76 77 76 74 74 74 72 73 75 74 75 75 75 74 76 76 76 77 77 78 78 78 80 79 79 80 80 81
70 70 71 73 73 73 72 73 73 73 74 74 74 74 75 77 79 76 75 75 76 75 74 74 75 74 74 75 76 77 77 76 76 79 77 78 78 78 78 77 79 79 80
71 70 70 71 72 72 72 71 71 72 73 74 74 75 76 75 77 76 76 76 76 76 75 74 73 75 74 73 76 77 76 76 76 75 75 77 76 76 76 76 75 76 78
72 69 69 70 70 70 70 69 69 70 72 73 74 76 76 76 77 76 76 76 76 76 75 75 74 72 74 74 72 74 74 75 74 75 74 73 75 76 75 74 73 73 75
72 71 69 69 70 70 70 70 70 70 71 72 73 75 76 76 76 76 75 75 75 75 74 75 74 73 73 73 72 69 69 72 74 75 73 74 73 75 75 76 74 74 73
71 70 71 70 70 70 70 70 70 71 71 71 72 73 75 75 75 75 75 75 76 75 73 73 74 73 71 72 71 70 66 64 66 70 72 72 72 72 73 73 73 72 73
73 73 72 71 70 70 70 69 69 69 69 70 71 72 73 75 75 76 76 76 74 73 72 71 74 72 71 70 70 71 70 69 65 62 67 70 70 71 71 72 71 72 71
75 74 73 71 71 71 70 71 70 69 70 71 72 72 72 73 75 77 76 75 73 72 72 72 72 72 71 70 69 69 68 67 66 64 61 65 69 70 70 70 71 70 71
76 76 74 71 71 71 71 71 70 70 70 70 71 71 72 73 74 75 76 74 73 72 72 72 72 71 70 69 69 68 67 66 65 64 62 63 61 67 70 70 70 69 69